EDW229F GCRR-LSZH

Flight info

Callsign EDW229F
Flight time 2h 26m
Altitude 38000
Route KORAL UN871 SONSO DCT NIRAL UN871 ADUBI DCT VJF DCT MAR DCT ALCOL DCT LOGRO DCT ETANA DCT VTB DCT PALIO DCT SEGRE DCT YAKXU DCT RONNY DCT TOPTU DCT TOU DCT GAI DCT MEN DCT NINUN DCT LATAM DCT ETREK DCT LTP DCT SOPLO DCT OMASI DCT KINNI DCT LAMUR DCT KORED/N0404F320 N871 BERSU
Aircraft A20N/M-SDE2E3FGHIRWXY/LB1

Departure

Time 2026-05-06 11:26
Airport César Manrique-Lanzarote Airport (GCRR)

Arrival

Time 2026-05-06 13:52
Airport Zürich Airport (LSZH)
Time Latitude Longitude Altitude Speed Heading
2026-05-06 11:10 28.94966 -13.60778 36 ft 0 kts 297°
2026-05-06 11:18 28.94965 -13.60774 36 ft 2 kts 297°
2026-05-06 11:18 28.94958 -13.60758 35 ft 3 kts 297°
2026-05-06 11:18 28.94951 -13.60743 33 ft 2 kts 295°
2026-05-06 11:19 28.94938 -13.60712 33 ft 5 kts 295°
2026-05-06 11:19 28.94940 -13.60679 35 ft 5 kts 217°
2026-05-06 11:19 28.94945 -13.60675 35 ft 0 kts 205°
2026-05-06 11:21 28.94939 -13.60678 35 ft 2 kts 201°
2026-05-06 11:21 28.94912 -13.60660 36 ft 9 kts 129°
2026-05-06 11:22 28.94875 -13.60585 36 ft 12 kts 134°
2026-05-06 11:22 28.94788 -13.60590 35 ft 15 kts 206°
2026-05-06 11:22 28.94682 -13.60649 34 ft 19 kts 207°
2026-05-06 11:22 28.94553 -13.60725 32 ft 23 kts 207°
2026-05-06 11:23 28.94412 -13.60805 30 ft 21 kts 206°
2026-05-06 11:23 28.94268 -13.60884 28 ft 24 kts 206°
2026-05-06 11:23 28.94124 -13.60973 29 ft 19 kts 207°
2026-05-06 11:23 28.94036 -13.61025 26 ft 8 kts 207°
2026-05-06 11:24 28.93976 -13.61060 26 ft 12 kts 207°
2026-05-06 11:24 28.93893 -13.61109 24 ft 15 kts 206°
2026-05-06 11:24 28.93784 -13.61169 21 ft 19 kts 206°
2026-05-06 11:24 28.93687 -13.61218 20 ft 13 kts 188°
2026-05-06 11:25 28.93622 -13.61146 19 ft 15 kts 115°
2026-05-06 11:25 28.93637 -13.61046 20 ft 13 kts 26°
2026-05-06 11:25 28.93721 -13.61004 22 ft 14 kts 26°
2026-05-06 11:25 28.94025 -13.60821 27 ft 89 kts 27°
2026-05-06 11:26 28.94773 -13.60386 101 ft 143 kts 31°
2026-05-06 11:26 28.95624 -13.59812 897 ft 142 kts 38°
2026-05-06 11:26 28.96440 -13.59132 1756 ft 147 kts 38°
2026-05-06 11:26 28.97274 -13.58409 2425 ft 157 kts 38°
2026-05-06 11:27 28.98194 -13.57628 2968 ft 172 kts 36°
2026-05-06 11:27 28.99218 -13.56774 3415 ft 193 kts 34°
2026-05-06 11:27 29.00382 -13.55826 3740 ft 219 kts 33°
2026-05-06 11:27 29.01569 -13.54587 4079 ft 247 kts 47°
2026-05-06 11:28 29.02695 -13.52989 4592 ft 267 kts 49°
2026-05-06 11:28 29.03874 -13.51287 5335 ft 277 kts 49°
2026-05-06 11:28 29.05080 -13.49539 6211 ft 283 kts 48°
2026-05-06 11:28 29.06327 -13.47750 6982 ft 289 kts 49°
2026-05-06 11:29 29.07585 -13.45941 7818 ft 294 kts 49°
2026-05-06 11:29 29.08865 -13.44098 8649 ft 299 kts 49°
2026-05-06 11:29 29.10293 -13.42371 9472 ft 299 kts 32°
2026-05-06 11:29 29.12133 -13.41267 10241 ft 301 kts 20°
2026-05-06 11:30 29.14113 -13.40264 10596 ft 323 kts 20°
2026-05-06 11:30 29.16216 -13.39210 10864 ft 346 kts 20°
2026-05-06 11:30 29.18451 -13.38081 11432 ft 355 kts 20°
2026-05-06 11:30 29.20716 -13.36929 11537 ft 356 kts 21°
2026-05-06 11:31 29.22976 -13.35774 11637 ft 356 kts 21°
2026-05-06 11:31 29.25233 -13.34592 11748 ft 358 kts 25°
2026-05-06 11:31 29.27296 -13.32964 11855 ft 364 kts 39°
2026-05-06 11:31 29.28979 -13.30793 11964 ft 367 kts 53°
2026-05-06 11:32 29.30437 -13.28383 12036 ft 369 kts 53°
2026-05-06 11:32 29.31902 -13.25971 12039 ft 368 kts 53°
2026-05-06 11:32 29.33368 -13.23564 12039 ft 368 kts 53°
2026-05-06 11:32 29.34833 -13.21161 12040 ft 368 kts 53°
2026-05-06 11:33 29.36301 -13.18754 12040 ft 368 kts 53°
2026-05-06 11:33 29.37767 -13.16349 12040 ft 368 kts 53°
2026-05-06 11:33 29.39233 -13.13943 12040 ft 368 kts 53°
2026-05-06 11:33 29.40700 -13.11533 12039 ft 368 kts 53°
2026-05-06 11:34 29.42166 -13.09124 12037 ft 369 kts 53°
2026-05-06 11:34 29.43633 -13.06712 12036 ft 368 kts 53°
2026-05-06 11:34 29.45097 -13.04300 12034 ft 369 kts 53°
2026-05-06 11:34 29.46561 -13.01889 12034 ft 368 kts 53°
2026-05-06 11:35 29.48028 -12.99472 12066 ft 371 kts 53°
2026-05-06 11:35 29.49507 -12.97033 12520 ft 374 kts 53°
2026-05-06 11:35 29.50997 -12.94574 13338 ft 377 kts 53°
2026-05-06 11:35 29.52500 -12.92091 14036 ft 381 kts 53°
2026-05-06 11:36 29.54024 -12.89573 14676 ft 386 kts 53°
2026-05-06 11:36 29.55563 -12.87028 15311 ft 390 kts 53°
2026-05-06 11:36 29.57121 -12.84451 15934 ft 395 kts 53°
2026-05-06 11:36 29.58694 -12.81846 16559 ft 399 kts 53°
2026-05-06 11:37 29.60286 -12.79208 17171 ft 404 kts 53°
2026-05-06 11:37 29.61893 -12.76543 17772 ft 409 kts 53°
2026-05-06 11:37 29.63529 -12.73830 18284 ft 415 kts 53°
2026-05-06 11:37 29.65179 -12.71090 18852 ft 418 kts 53°
2026-05-06 11:38 29.66838 -12.68333 19409 ft 421 kts 53°
2026-05-06 11:38 29.68510 -12.65554 19939 ft 425 kts 53°
2026-05-06 11:38 29.70197 -12.62747 20484 ft 428 kts 53°
2026-05-06 11:38 29.71893 -12.59924 21009 ft 431 kts 54°
2026-05-06 11:39 29.73607 -12.57069 21532 ft 435 kts 54°
2026-05-06 11:39 29.75322 -12.54188 22057 ft 438 kts 54°
2026-05-06 11:39 29.77043 -12.51277 22571 ft 442 kts 54°
2026-05-06 11:39 29.78775 -12.48343 23078 ft 445 kts 54°
2026-05-06 11:40 29.80521 -12.45385 23590 ft 448 kts 54°
2026-05-06 11:40 29.82277 -12.42411 24114 ft 449 kts 54°
2026-05-06 11:40 29.84039 -12.39425 24434 ft 455 kts 54°
2026-05-06 11:40 29.85838 -12.36378 24690 ft 462 kts 54°
2026-05-06 11:41 29.87624 -12.33349 25076 ft 465 kts 54°
2026-05-06 11:41 29.89451 -12.30248 25423 ft 470 kts 54°
2026-05-06 11:41 29.91291 -12.27122 25778 ft 474 kts 54°
2026-05-06 11:41 29.93148 -12.23965 26120 ft 478 kts 54°
2026-05-06 11:42 29.95018 -12.20784 26467 ft 481 kts 54°
2026-05-06 11:42 29.96904 -12.17574 26796 ft 485 kts 54°
2026-05-06 11:42 29.98803 -12.14338 27116 ft 489 kts 55°
2026-05-06 11:42 30.00759 -12.11110 27427 ft 492 kts 50°
2026-05-06 11:43 30.03035 -12.08163 27726 ft 493 kts 41°
2026-05-06 11:43 30.05516 -12.05410 28042 ft 496 kts 41°
2026-05-06 11:43 30.08009 -12.02627 28227 ft 503 kts 41°
2026-05-06 11:44 30.13097 -11.96929 28618 ft 514 kts 41°
2026-05-06 11:44 30.15673 -11.94043 28890 ft 517 kts 41°
2026-05-06 11:44 30.18263 -11.91140 29156 ft 521 kts 41°
2026-05-06 11:44 30.20869 -11.88217 29411 ft 524 kts 41°
2026-05-06 11:45 30.23489 -11.85275 29662 ft 527 kts 41°
2026-05-06 11:45 30.26128 -11.82310 29924 ft 530 kts 41°
2026-05-06 11:45 30.28783 -11.79324 30163 ft 534 kts 41°
2026-05-06 11:45 30.31451 -11.76320 30391 ft 536 kts 41°
2026-05-06 11:46 30.34132 -11.73300 30618 ft 539 kts 41°
2026-05-06 11:46 30.36823 -11.70265 30846 ft 542 kts 41°
2026-05-06 11:46 30.39529 -11.67211 31080 ft 544 kts 41°
2026-05-06 11:46 30.42244 -11.64144 31359 ft 546 kts 41°
2026-05-06 11:47 30.44958 -11.61077 31830 ft 541 kts 42°
2026-05-06 11:47 30.47627 -11.58055 32493 ft 534 kts 42°
2026-05-06 11:47 30.50249 -11.55085 32742 ft 535 kts 42°
2026-05-06 11:47 30.52916 -11.52064 32983 ft 537 kts 41°
2026-05-06 11:48 30.55591 -11.49031 33217 ft 538 kts 41°
2026-05-06 11:48 30.58267 -11.45994 33451 ft 539 kts 41°
2026-05-06 11:48 30.60954 -11.42942 33678 ft 541 kts 41°
2026-05-06 11:48 30.63644 -11.39884 33902 ft 542 kts 41°
2026-05-06 11:49 30.66342 -11.36815 34115 ft 543 kts 42°
2026-05-06 11:49 30.69033 -11.33750 34387 ft 542 kts 42°
2026-05-06 11:49 30.71719 -11.30688 34599 ft 542 kts 41°
2026-05-06 11:49 30.74429 -11.27597 34591 ft 548 kts 41°
2026-05-06 11:50 30.77147 -11.24495 34928 ft 544 kts 41°
2026-05-06 11:50 30.79806 -11.21453 35637 ft 531 kts 42°
2026-05-06 11:50 30.82432 -11.18449 36000 ft 528 kts 42°
2026-05-06 11:50 30.85048 -11.15456 36198 ft 528 kts 42°
2026-05-06 11:51 30.86815 -11.13433 36326 ft 527 kts 42°
2026-05-06 11:51 30.89394 -11.10479 36527 ft 527 kts 42°
2026-05-06 11:51 30.92038 -11.07448 36725 ft 526 kts 42°
2026-05-06 11:51 30.94642 -11.04460 36918 ft 525 kts 42°
2026-05-06 11:52 30.97243 -11.01471 37096 ft 525 kts 42°
2026-05-06 11:52 30.99840 -10.98486 37269 ft 524 kts 42°
2026-05-06 11:52 31.02432 -10.95504 37439 ft 524 kts 42°
2026-05-06 11:52 31.05026 -10.92516 37499 ft 526 kts 41°
2026-05-06 11:53 31.07637 -10.89509 37623 ft 526 kts 42°
2026-05-06 11:53 31.10222 -10.86527 37830 ft 519 kts 42°
2026-05-06 11:53 31.12773 -10.83580 37947 ft 515 kts 42°
2026-05-06 11:53 31.15287 -10.80676 38004 ft 516 kts 42°
2026-05-06 11:54 31.20397 -10.74767 38004 ft 517 kts 42°
2026-05-06 11:54 31.25503 -10.68851 38004 ft 517 kts 42°
2026-05-06 11:55 31.30604 -10.62933 38004 ft 517 kts 42°
2026-05-06 11:55 31.35699 -10.57011 37975 ft 517 kts 42°
2026-05-06 11:56 31.40782 -10.51093 37999 ft 513 kts 42°
2026-05-06 11:56 31.45853 -10.45182 38004 ft 516 kts 43°
2026-05-06 11:57 31.50930 -10.39253 38001 ft 515 kts 43°
2026-05-06 11:57 31.55999 -10.33324 38004 ft 515 kts 43°
2026-05-06 11:58 31.61069 -10.27384 38002 ft 515 kts 43°
2026-05-06 11:58 31.66136 -10.21437 38003 ft 515 kts 43°
2026-05-06 11:59 31.71186 -10.15500 38005 ft 513 kts 43°
2026-05-06 11:59 31.76230 -10.09561 37998 ft 514 kts 43°
2026-05-06 12:00 31.81275 -10.03612 38010 ft 514 kts 43°
2026-05-06 12:00 31.86321 -9.97652 38011 ft 514 kts 43°
2026-05-06 12:01 31.91327 -9.91728 38010 ft 514 kts 43°
2026-05-06 12:01 31.96364 -9.85759 38027 ft 514 kts 43°
2026-05-06 12:02 32.01363 -9.79822 38007 ft 510 kts 43°
2026-05-06 12:02 32.06382 -9.73857 38006 ft 513 kts 43°
2026-05-06 12:03 32.11398 -9.67883 38003 ft 512 kts 43°
2026-05-06 12:03 32.16413 -9.61900 38007 ft 513 kts 43°
2026-05-06 12:04 32.21425 -9.55911 38009 ft 513 kts 43°
2026-05-06 12:04 32.26437 -9.49912 38050 ft 513 kts 43°
2026-05-06 12:05 32.31405 -9.43953 38009 ft 508 kts 43°
2026-05-06 12:05 32.36390 -9.37968 38005 ft 512 kts 43°
2026-05-06 12:06 32.41385 -9.31960 38004 ft 511 kts 43°
2026-05-06 12:06 32.46369 -9.25953 38004 ft 512 kts 43°
2026-05-06 12:07 32.51354 -9.19936 38004 ft 512 kts 43°
2026-05-06 12:07 32.56301 -9.13954 38046 ft 511 kts 43°
2026-05-06 12:08 32.61240 -9.07972 37988 ft 507 kts 43°
2026-05-06 12:08 32.66192 -9.01967 38001 ft 510 kts 43°
2026-05-06 12:09 32.71149 -8.95943 38002 ft 509 kts 43°
2026-05-06 12:09 32.76098 -8.89918 37999 ft 510 kts 43°
2026-05-06 12:10 32.81046 -8.83885 37999 ft 510 kts 43°
2026-05-06 12:10 32.85995 -8.77841 38021 ft 510 kts 43°
2026-05-06 12:11 32.90915 -8.71821 38001 ft 507 kts 43°
2026-05-06 12:11 32.95812 -8.65820 38001 ft 510 kts 43°
2026-05-06 12:12 33.00742 -8.59768 37999 ft 509 kts 43°
2026-05-06 12:12 33.05665 -8.53714 38000 ft 509 kts 43°
2026-05-06 12:13 33.10590 -8.47651 37993 ft 509 kts 43°
2026-05-06 12:13 33.15516 -8.41579 37997 ft 509 kts 43°
2026-05-06 12:14 33.20708 -8.35886 37998 ft 505 kts 32°
2026-05-06 12:14 33.26575 -8.31348 37979 ft 502 kts 27°
2026-05-06 12:15 33.32483 -8.26891 37982 ft 503 kts 27°
2026-05-06 12:15 33.38400 -8.22425 37987 ft 503 kts 27°
2026-05-06 12:16 33.44322 -8.17949 37987 ft 502 kts 28°
2026-05-06 12:16 33.50213 -8.13491 37988 ft 501 kts 28°
2026-05-06 12:17 33.56070 -8.09051 37990 ft 502 kts 28°
2026-05-06 12:17 33.62008 -8.04543 37991 ft 502 kts 28°
2026-05-06 12:18 33.67860 -8.00092 37991 ft 502 kts 28°
2026-05-06 12:18 33.73758 -7.95600 38001 ft 502 kts 28°
2026-05-06 12:19 33.79654 -7.91101 37999 ft 502 kts 28°
2026-05-06 12:19 33.85545 -7.86599 37998 ft 502 kts 28°
2026-05-06 12:20 33.91433 -7.82091 38001 ft 501 kts 28°
2026-05-06 12:20 33.97315 -7.77581 38034 ft 501 kts 28°
2026-05-06 12:21 34.03190 -7.73069 37991 ft 499 kts 28°
2026-05-06 12:21 34.09044 -7.68564 37993 ft 499 kts 28°
2026-05-06 12:22 34.14905 -7.64048 37993 ft 500 kts 28°
2026-05-06 12:22 34.20763 -7.59526 37982 ft 500 kts 28°
2026-05-06 12:23 34.26625 -7.54993 37997 ft 501 kts 28°
2026-05-06 12:23 34.32482 -7.50456 37993 ft 499 kts 28°
2026-05-06 12:24 34.38327 -7.45922 37993 ft 499 kts 28°
2026-05-06 12:24 34.44173 -7.41379 37990 ft 499 kts 28°
2026-05-06 12:25 34.50017 -7.36830 37990 ft 500 kts 28°
2026-05-06 12:25 34.55862 -7.32273 37992 ft 499 kts 29°
2026-05-06 12:26 34.61637 -7.27761 37982 ft 497 kts 29°
2026-05-06 12:26 34.67404 -7.23249 37972 ft 496 kts 29°
2026-05-06 12:27 34.73205 -7.18703 37991 ft 498 kts 28°
2026-05-06 12:27 34.79047 -7.14118 38017 ft 499 kts 29°
2026-05-06 12:28 34.84867 -7.09540 37988 ft 498 kts 29°
2026-05-06 12:28 34.90686 -7.04957 37988 ft 498 kts 29°
2026-05-06 12:29 34.96507 -7.00364 37987 ft 498 kts 29°
2026-05-06 12:29 35.02325 -6.95765 37984 ft 498 kts 29°
2026-05-06 12:30 35.08140 -6.91161 38004 ft 498 kts 29°
2026-05-06 12:30 35.13955 -6.86548 38001 ft 498 kts 29°
2026-05-06 12:31 35.19765 -6.81931 37987 ft 498 kts 29°
2026-05-06 12:31 35.25571 -6.77311 37978 ft 498 kts 29°
2026-05-06 12:32 35.31374 -6.72686 37978 ft 498 kts 29°
2026-05-06 12:32 35.37185 -6.68077 37982 ft 497 kts 28°
2026-05-06 12:33 35.43008 -6.63614 37980 ft 497 kts 28°
2026-05-06 12:33 35.48866 -6.59122 37978 ft 496 kts 28°
2026-05-06 12:34 35.54710 -6.54614 37972 ft 496 kts 28°
2026-05-06 12:34 35.60552 -6.50096 37980 ft 496 kts 28°
2026-05-06 12:35 35.66393 -6.45570 37970 ft 496 kts 28°
2026-05-06 12:35 35.72223 -6.41044 37970 ft 495 kts 28°
2026-05-06 12:36 35.78049 -6.36514 37963 ft 495 kts 28°
2026-05-06 12:36 35.83868 -6.31982 37961 ft 495 kts 28°
2026-05-06 12:37 35.89561 -6.27187 37964 ft 496 kts 32°
2026-05-06 12:37 35.95208 -6.22281 37957 ft 496 kts 31°
2026-05-06 12:38 36.00866 -6.17409 37957 ft 496 kts 31°
2026-05-06 12:38 36.06537 -6.12542 37961 ft 496 kts 31°
2026-05-06 12:39 36.12205 -6.07671 37957 ft 497 kts 31°
2026-05-06 12:39 36.17878 -6.02785 37960 ft 497 kts 31°
2026-05-06 12:40 36.23496 -5.97776 37963 ft 500 kts 37°
2026-05-06 12:40 36.28520 -5.91799 37954 ft 502 kts 43°
2026-05-06 12:41 36.32607 -5.86690 37950 ft 502 kts 43°
2026-05-06 12:41 36.37529 -5.80534 37960 ft 503 kts 43°
2026-05-06 12:42 36.42442 -5.74364 37947 ft 503 kts 43°
2026-05-06 12:42 36.48151 -5.67174 37944 ft 503 kts 43°
2026-05-06 12:43 36.52266 -5.61982 37935 ft 503 kts 43°
2026-05-06 12:43 36.57174 -5.55778 37931 ft 503 kts 43°
2026-05-06 12:44 36.62036 -5.49621 37925 ft 502 kts 43°
2026-05-06 12:44 36.66959 -5.43373 37927 ft 501 kts 43°
2026-05-06 12:45 36.71832 -5.37177 37927 ft 501 kts 43°
2026-05-06 12:46 36.79150 -5.27851 37918 ft 502 kts 43°
2026-05-06 12:46 36.83993 -5.21664 37924 ft 501 kts 43°
2026-05-06 12:47 36.88868 -5.15425 37945 ft 502 kts 43°
2026-05-06 12:47 36.93729 -5.09189 37920 ft 500 kts 43°
2026-05-06 12:48 36.98584 -5.02951 37921 ft 501 kts 43°
2026-05-06 12:48 37.03556 -4.96883 37914 ft 498 kts 36°
2026-05-06 12:49 37.09302 -4.92177 37913 ft 491 kts 22°
2026-05-06 12:49 37.15546 -4.88806 37925 ft 489 kts 18°
2026-05-06 12:50 37.21804 -4.85524 37907 ft 486 kts 18°
2026-05-06 12:50 37.28054 -4.82250 37914 ft 487 kts 18°
2026-05-06 12:51 37.34308 -4.78973 37916 ft 487 kts 18°
2026-05-06 12:51 37.40559 -4.75694 37904 ft 486 kts 18°
2026-05-06 12:52 37.46789 -4.72419 37904 ft 485 kts 18°
2026-05-06 12:52 37.53017 -4.69140 37904 ft 485 kts 18°
2026-05-06 12:53 37.59236 -4.65859 37895 ft 484 kts 18°
2026-05-06 12:53 37.65410 -4.62597 37898 ft 484 kts 18°
2026-05-06 12:54 37.71620 -4.59309 37899 ft 484 kts 18°
2026-05-06 12:54 37.77828 -4.56016 37893 ft 484 kts 18°
2026-05-06 12:55 37.84037 -4.52717 37894 ft 484 kts 18°
2026-05-06 12:55 37.90253 -4.49408 37901 ft 485 kts 18°
2026-05-06 12:56 37.96468 -4.46093 37901 ft 485 kts 18°
2026-05-06 12:56 38.02686 -4.42770 37897 ft 485 kts 18°
2026-05-06 12:57 38.08913 -4.39437 37903 ft 486 kts 18°
2026-05-06 12:57 38.15140 -4.36097 37906 ft 486 kts 18°
2026-05-06 12:58 38.21376 -4.32747 37917 ft 487 kts 18°
2026-05-06 12:58 38.27613 -4.29389 37913 ft 487 kts 18°
2026-05-06 12:59 38.33850 -4.26025 37912 ft 487 kts 18°
2026-05-06 12:59 38.40085 -4.22656 37919 ft 487 kts 18°
2026-05-06 13:00 38.46314 -4.19282 37905 ft 485 kts 18°
2026-05-06 13:00 38.52532 -4.15911 37912 ft 486 kts 18°
2026-05-06 13:01 38.58754 -4.12530 37941 ft 485 kts 18°
2026-05-06 13:01 38.64958 -4.09153 37915 ft 485 kts 18°
2026-05-06 13:02 38.71122 -4.05791 37918 ft 485 kts 18°
2026-05-06 13:02 38.77338 -4.02393 37926 ft 486 kts 19°
2026-05-06 13:03 38.83554 -3.98990 37942 ft 486 kts 19°
2026-05-06 13:03 38.89741 -3.95594 37923 ft 483 kts 19°
2026-05-06 13:04 38.95927 -3.92195 37922 ft 484 kts 19°
2026-05-06 13:04 39.02112 -3.88790 37923 ft 484 kts 19°
2026-05-06 13:05 39.08255 -3.85401 37920 ft 482 kts 19°
2026-05-06 13:05 39.14401 -3.82003 37916 ft 481 kts 19°
2026-05-06 13:06 39.20573 -3.78587 37927 ft 484 kts 19°
2026-05-06 13:06 39.26755 -3.75157 37929 ft 483 kts 19°
2026-05-06 13:07 39.32912 -3.71734 37936 ft 480 kts 19°
2026-05-06 13:07 39.39038 -3.68321 37911 ft 478 kts 19°
2026-05-06 13:08 39.45147 -3.64914 37940 ft 481 kts 19°
2026-05-06 13:08 39.51303 -3.61473 37939 ft 482 kts 19°
2026-05-06 13:09 39.64703 -3.53953 37946 ft 480 kts 19°
2026-05-06 13:09 39.88261 -3.37657 37932 ft 482 kts 30°
2026-05-06 13:10 40.10644 -3.18375 37969 ft 483 kts 30°
2026-05-06 13:10 40.32955 -2.98972 37948 ft 479 kts 30°
2026-05-06 13:11 40.55097 -2.79555 37962 ft 481 kts 30°
2026-05-06 13:11 40.77500 -2.59748 37952 ft 482 kts 31°
2026-05-06 13:12 40.99587 -2.40059 37960 ft 481 kts 31°
2026-05-06 13:12 41.20704 -2.18083 37961 ft 482 kts 36°
2026-05-06 13:13 41.41543 -1.95774 37967 ft 480 kts 36°
2026-05-06 13:13 41.62284 -1.73383 37956 ft 479 kts 36°
2026-05-06 13:14 41.82953 -1.50879 37959 ft 479 kts 36°
2026-05-06 13:14 42.03589 -1.28216 37976 ft 479 kts 36°
2026-05-06 13:15 42.24185 -1.05403 37973 ft 480 kts 37°
2026-05-06 13:15 42.44386 -0.81805 37966 ft 484 kts 48°
2026-05-06 13:16 42.60844 -0.52899 37950 ft 484 kts 50°
2026-05-06 13:16 42.77202 -0.23779 37948 ft 484 kts 51°
2026-05-06 13:17 42.94025 0.04526 37959 ft 486 kts 49°
2026-05-06 13:17 43.11057 0.33123 37954 ft 484 kts 49°
2026-05-06 13:18 43.28025 0.61893 37959 ft 486 kts 50°
2026-05-06 13:18 43.44962 0.90895 37949 ft 485 kts 50°
2026-05-06 13:19 43.61761 1.19950 37963 ft 487 kts 50°
2026-05-06 13:19 43.78096 1.49694 37958 ft 485 kts 53°
2026-05-06 13:20 43.94075 1.79869 37931 ft 485 kts 53°
2026-05-06 13:20 44.09507 2.10720 37942 ft 486 kts 55°
2026-05-06 13:21 44.24803 2.41757 37941 ft 485 kts 55°
2026-05-06 13:21 44.39996 2.72918 37956 ft 486 kts 56°
2026-05-06 13:22 44.55083 3.04200 37928 ft 484 kts 56°
2026-05-06 13:22 44.69066 3.36731 37901 ft 487 kts 61°
2026-05-06 13:23 44.82281 3.69963 37900 ft 487 kts 61°
2026-05-06 13:23 44.95446 4.03475 37903 ft 489 kts 62°
2026-05-06 13:24 45.08508 4.37129 37911 ft 489 kts 62°
2026-05-06 13:24 45.21361 4.70652 37917 ft 486 kts 63°
2026-05-06 13:25 45.34159 5.04446 37925 ft 485 kts 63°
2026-05-06 13:25 45.46886 5.38299 37941 ft 485 kts 59°
2026-05-06 13:25 45.55810 5.52654 37930 ft 489 kts 41°
2026-05-06 13:26 45.65896 5.65590 37941 ft 486 kts 41°
2026-05-06 13:26 45.85964 5.91393 37937 ft 484 kts 42°
2026-05-06 13:27 46.06090 6.17499 37929 ft 485 kts 43°
2026-05-06 13:27 46.14447 6.32580 37936 ft 486 kts 56°
2026-05-06 13:27 46.22244 6.48523 37923 ft 487 kts 56°
2026-05-06 13:28 46.37722 6.80590 37910 ft 486 kts 57°
2026-05-06 13:28 46.49058 7.04313 37872 ft 488 kts 57°
2026-05-06 13:28 46.50987 7.08371 37647 ft 489 kts 57°
2026-05-06 13:29 46.52913 7.12427 37375 ft 487 kts 57°
2026-05-06 13:29 46.54838 7.16476 37101 ft 488 kts 56°
2026-05-06 13:29 46.57017 7.20281 36481 ft 493 kts 45°
2026-05-06 13:29 46.59618 7.23552 35718 ft 496 kts 35°
2026-05-06 13:30 46.62508 7.26149 35101 ft 495 kts 26°
2026-05-06 13:30 46.65626 7.28274 34381 ft 495 kts 24°
2026-05-06 13:30 46.68759 7.30376 33531 ft 499 kts 24°
2026-05-06 13:30 46.71907 7.32500 32750 ft 498 kts 24°
2026-05-06 13:31 46.75054 7.34628 31956 ft 499 kts 24°
2026-05-06 13:31 46.78207 7.36761 31164 ft 500 kts 24°
2026-05-06 13:31 46.81338 7.38907 30608 ft 495 kts 27°
2026-05-06 13:31 46.84253 7.41550 30009 ft 492 kts 38°
2026-05-06 13:32 46.86807 7.44846 29337 ft 486 kts 49°
2026-05-06 13:32 46.88958 7.48598 28773 ft 478 kts 54°
2026-05-06 13:32 46.91018 7.52392 28186 ft 474 kts 54°
2026-05-06 13:32 46.93064 7.56143 27608 ft 470 kts 54°
2026-05-06 13:33 46.95088 7.59862 27046 ft 465 kts 54°
2026-05-06 13:33 46.97087 7.63545 26466 ft 460 kts 54°
2026-05-06 13:33 46.99064 7.67195 25910 ft 454 kts 54°
2026-05-06 13:33 47.01012 7.70800 25352 ft 449 kts 54°
2026-05-06 13:34 47.02945 7.74379 24795 ft 445 kts 54°
2026-05-06 13:34 47.04853 7.77917 24241 ft 440 kts 54°
2026-05-06 13:34 47.06741 7.81420 23691 ft 434 kts 54°
2026-05-06 13:34 47.08602 7.84877 23050 ft 430 kts 54°
2026-05-06 13:35 47.10408 7.88238 22569 ft 421 kts 54°
2026-05-06 13:35 47.12204 7.91588 22031 ft 414 kts 56°
2026-05-06 13:35 47.13785 7.95047 21491 ft 403 kts 63°
2026-05-06 13:35 47.15027 7.98686 20989 ft 395 kts 68°
2026-05-06 13:36 47.16178 8.02325 20487 ft 390 kts 68°
2026-05-06 13:36 47.17331 8.05901 19987 ft 386 kts 66°
2026-05-06 13:36 47.18699 8.09284 19482 ft 384 kts 57°
2026-05-06 13:36 47.20357 8.12342 18981 ft 383 kts 50°
2026-05-06 13:37 47.21566 8.14292 18652 ft 380 kts 50°
2026-05-06 13:37 47.23332 8.17169 18163 ft 378 kts 50°
2026-05-06 13:37 47.25078 8.20034 17635 ft 374 kts 50°
2026-05-06 13:37 47.26782 8.22837 17151 ft 370 kts 50°
2026-05-06 13:38 47.28489 8.25646 16668 ft 366 kts 50°
2026-05-06 13:38 47.30179 8.28429 16191 ft 363 kts 49°
2026-05-06 13:38 47.31856 8.31193 15717 ft 360 kts 49°
2026-05-06 13:38 47.33503 8.33946 15247 ft 356 kts 53°
2026-05-06 13:39 47.34685 8.37106 14789 ft 351 kts 73°
2026-05-06 13:39 47.35066 8.40618 14327 ft 349 kts 94°
2026-05-06 13:39 47.34834 8.44339 13879 ft 378 kts 98°
2026-05-06 13:39 47.34547 8.48259 13334 ft 389 kts 98°
2026-05-06 13:40 47.34161 8.53582 12655 ft 390 kts 98°
2026-05-06 13:40 47.33974 8.56200 12319 ft 386 kts 98°
2026-05-06 13:40 47.33696 8.60112 11820 ft 380 kts 98°
2026-05-06 13:40 47.33421 8.63955 11317 ft 374 kts 98°
2026-05-06 13:41 47.33151 8.67742 10829 ft 369 kts 98°
2026-05-06 13:41 47.32886 8.71429 10389 ft 364 kts 98°
2026-05-06 13:41 47.32620 8.75112 10218 ft 349 kts 98°
2026-05-06 13:41 47.32370 8.78555 10081 ft 336 kts 98°
2026-05-06 13:42 47.32125 8.81918 9954 ft 324 kts 98°
2026-05-06 13:42 47.31885 8.85174 9672 ft 317 kts 98°
2026-05-06 13:42 47.31645 8.88391 9302 ft 313 kts 98°
2026-05-06 13:42 47.31410 8.91560 8927 ft 309 kts 98°
2026-05-06 13:43 47.31178 8.94695 8549 ft 306 kts 98°
2026-05-06 13:43 47.31015 8.97796 8184 ft 303 kts 87°
2026-05-06 13:43 47.31540 9.00759 7797 ft 298 kts 60°
2026-05-06 13:43 47.32832 9.03037 7478 ft 287 kts 33°
2026-05-06 13:44 47.34592 9.04214 7165 ft 272 kts
2026-05-06 13:44 47.36440 9.04434 6964 ft 262 kts 355°
2026-05-06 13:44 47.38289 9.04423 6874 ft 264 kts 355°
2026-05-06 13:44 47.40074 9.04324 6845 ft 249 kts 340°
2026-05-06 13:45 47.41506 9.03163 6822 ft 230 kts 310°
2026-05-06 13:45 47.42630 8.99231 6610 ft 196 kts 275°
2026-05-06 13:45 47.42789 8.97294 6466 ft 186 kts 273°
2026-05-06 13:46 47.42921 8.95431 6304 ft 180 kts 273°
2026-05-06 13:46 47.43053 8.93546 6207 ft 185 kts 273°
2026-05-06 13:46 47.43184 8.91672 6103 ft 184 kts 273°
2026-05-06 13:46 47.43322 8.89777 5998 ft 186 kts 273°
2026-05-06 13:47 47.43456 8.87886 5867 ft 185 kts 274°
2026-05-06 13:47 47.43591 8.86017 5652 ft 182 kts 273°
2026-05-06 13:47 47.43723 8.84145 5409 ft 184 kts 274°
2026-05-06 13:47 47.43858 8.82261 5159 ft 184 kts 274°
2026-05-06 13:48 47.44004 8.80390 4943 ft 186 kts 274°
2026-05-06 13:48 47.44137 8.78438 4671 ft 196 kts 274°
2026-05-06 13:48 47.44291 8.76449 4392 ft 189 kts 274°
2026-05-06 13:48 47.44402 8.74618 4080 ft 174 kts 274°
2026-05-06 13:49 47.44526 8.72904 3830 ft 163 kts 273°
2026-05-06 13:49 47.44643 8.71317 3607 ft 148 kts 273°
2026-05-06 13:49 47.44745 8.69882 3379 ft 132 kts 272°
2026-05-06 13:49 47.44839 8.68545 3195 ft 134 kts 272°
2026-05-06 13:50 47.44936 8.67180 2998 ft 134 kts 273°
2026-05-06 13:50 47.45035 8.65810 2804 ft 133 kts 272°
2026-05-06 13:50 47.45128 8.64487 2605 ft 130 kts 272°
2026-05-06 13:50 47.45225 8.63109 2389 ft 136 kts 272°
2026-05-06 13:51 47.45320 8.61726 2181 ft 133 kts 274°
2026-05-06 13:51 47.45421 8.60374 1970 ft 135 kts 274°
2026-05-06 13:51 47.45519 8.58997 1760 ft 134 kts 275°
2026-05-06 13:51 47.45621 8.57665 1564 ft 132 kts 274°
2026-05-06 13:52 47.45699 8.56340 1415 ft 119 kts 274°
2026-05-06 13:52 47.45756 8.55617 1404 ft 44 kts 275°
2026-05-06 13:52 47.45769 8.55312 1398 ft 7 kts 237°
2026-05-06 13:52 47.45704 8.55293 1401 ft 8 kts 155°
2026-05-06 13:53 47.45649 8.55337 1407 ft 9 kts 159°
2026-05-06 13:53 47.45588 8.55372 1404 ft 10 kts 159°
2026-05-06 13:53 47.45531 8.55405 1406 ft 8 kts 155°
2026-05-06 13:53 47.45477 8.55441 1409 ft 10 kts 155°
2026-05-06 13:54 47.45389 8.55501 1408 ft 15 kts 155°
2026-05-06 13:54 47.45292 8.55568 1410 ft 15 kts 146°
2026-05-06 13:54 47.45271 8.55662 1406 ft 7 kts 86°
2026-05-06 13:54 47.45265 8.55738 1406 ft 7 kts 111°
2026-05-06 13:55 47.45233 8.55758 1411 ft 4 kts 182°
2026-05-06 13:55 47.45201 8.55754 1413 ft 5 kts 185°
2026-05-06 13:55 47.45186 8.55752 1411 ft 1 kts 185°
2026-05-06 13:55 47.45183 8.55751 1410 ft 0 kts 185°